FW0960 Weather Reports


time (UTC)temp
F
wind
direction
speed
knots
gust
knots
rain 1hr
in
rain 24hr
in
rain mn
in
humidity
%
barometer
mb
20260906230603 74 194 0.0 0.0 0.00 0.00 0.00 81 1015.8
20260906230104 74 194 0.0 0.0 0.00 0.00 0.00 81 1015.5
20260906225602 74 194 0.0 0.0 0.00 0.00 0.00 80 1015.6
20260906225104 74 194 0.0 0.0 0.00 0.00 0.00 80 1015.6
20260906224635 74 194 0.0 0.0 0.00 0.00 0.00 79 1015.6
20260906223602 75 194 0.0 0.0 0.00 0.00 0.00 79 1015.5
20260906223105 75 194 0.0 0.0 0.00 0.00 0.00 79 1015.8
20260906221546 75 194 0.0 0.0 0.00 0.00 0.00 80 1015.9
20260906220532 75 194 0.0 0.0 0.00 0.00 0.00 80 1015.7
20260906220031 75 194 0.0 0.0 0.00 0.00 0.00 80 1015.6
20260906215533 75 194 0.0 0.0 0.00 0.00 0.00 79 1015.4
20260906215032 75 194 0.0 0.0 0.00 0.00 0.00 79 1015.4
20260906214533 75 194 0.0 0.0 0.00 0.00 0.00 79 1015.3
20260906214031 76 194 0.0 0.0 0.00 0.00 0.00 78 1015.3
20260906213533 76 194 0.0 0.0 0.00 0.00 0.00 78 1015.2
20260906213035 76 194 0.0 0.0 0.00 0.00 0.00 78 1015.1
20260906212612 76 194 0.0 0.0 0.00 0.00 0.00 79 1015.3
20260906210536 76 194 0.0 0.0 0.00 0.00 0.00 78 1015.3
20260906210038 76 194 0.0 0.0 0.00 0.00 0.00 78 1015.2
20260906204532 76 194 0.0 0.0 0.00 0.00 0.00 77 1015.1
20260906204038 76 194 0.0 0.0 0.00 0.00 0.00 77 1015.2
20260906203530 76 194 0.0 0.0 0.00 0.00 0.00 78 1015.1
20260906203033 76 194 0.0 0.0 0.00 0.00 0.00 78 1015.1
20260906202529 76 194 0.0 0.0 0.00 0.00 0.00 77 1015.0
20260906202033 77 194 0.0 0.0 0.00 0.00 0.00 78 1014.9
20260906201527 77 188 0.0 0.0 0.00 0.00 0.00 78 1014.9
20260906201024 77 188 0.0 0.0 0.00 0.00 0.00 77 1014.9
20260906200529 77 188 0.0 0.0 0.00 0.00 0.00 78 1015.0
20260906200024 77 188 0.0 0.0 0.00 0.00 0.00 76 1015.1
20260906195520 77 188 0.0 0.0 0.00 0.00 0.00 77 1015.0
20260906195021 77 188 0.0 0.0 0.00 0.00 0.00 76 1015.0
20260906193518 77 188 0.0 0.0 0.00 0.00 0.00 77 1014.9
20260906192519 77 188 0.0 0.0 0.00 0.00 0.00 77 1015.0
20260906192017 77 188 0.0 0.0 0.00 0.00 0.00 79 1015.0
20260906191519 77 188 0.0 0.0 0.00 0.00 0.00 78 1015.1
20260906190523 76 188 0.0 0.0 0.00 0.00 0.00 79 1015.1
20260906190020 76 188 0.0 0.0 0.00 0.00 0.00 78 1015.1
20260906184512 76 188 0.0 0.0 0.00 0.00 0.00 78 1015.1
20260906183514 76 188 0.0 0.0 0.00 0.00 0.00 79 1015.2
20260906183017 76 188 0.0 0.0 0.00 0.00 0.00 78 1015.3
20260906182509 76 188 0.0 0.0 0.00 0.00 0.00 78 1015.3
20260906182010 76 188 0.0 0.0 0.00 0.00 0.00 79 1015.4
20260906181509 77 188 0.0 0.0 0.00 0.00 0.00 78 1015.4
20260906175511 76 188 0.0 0.0 0.00 0.00 0.00 79 1015.4
20260906175008 76 188 0.0 0.0 0.00 0.00 0.00 76 1015.4
20260906174002 76 188 0.0 0.0 0.00 0.00 0.00 77 1015.5
20260906173009 76 188 0.0 0.0 0.00 0.00 0.00 77 1015.4
20260906172510 76 188 0.0 0.0 0.00 0.00 0.00 78 1015.4
20260906171506 76 188 0.0 0.0 0.00 0.00 0.00 79 1015.5
20260906171008 76 190 0.0 0.0 0.00 0.00 0.00 78 1015.5
20260906170505 76 190 0.0 0.0 0.00 0.00 0.00 78 1015.4
20260906165502 76 190 0.0 0.0 0.00 0.00 0.00 79 1015.5
20260906165003 76 190 0.0 0.0 0.00 0.00 0.00 78 1015.5
20260906164000 77 190 0.0 0.0 0.00 0.00 0.00 81 1015.4
20260906163000 76 201 0.0 0.0 0.00 0.00 0.00 79 1015.3
20260906162457 76 254 0.0 0.0 0.00 0.00 0.00 79 1015.3
20260906161453 77 194 0.0 0.0 0.00 0.00 0.00 77 1015.3
20260906160949 77 194 0.0 0.0 0.00 0.00 0.00 77 1015.3
20260906160447 77 194 0.0 0.0 0.00 0.00 0.00 77 1015.4
20260906155440 76 194 0.0 0.0 0.00 0.00 0.00 78 1015.2
20260906154942 76 194 0.0 0.0 0.00 0.00 0.00 77 1015.2
20260906154440 76 194 0.0 0.0 0.00 0.00 0.00 78 1015.2
20260906153937 76 192 0.0 0.0 0.00 0.00 0.00 77 1015.2
20260906153442 76 192 0.0 0.0 0.00 0.00 0.00 78 1015.3
20260906152936 76 192 0.0 0.0 0.00 0.00 0.00 77 1015.2
20260906152434 76 188 0.0 0.0 0.00 0.00 0.00 76 1015.2
20260906151932 76 194 0.0 0.0 0.00 0.00 0.00 78 1015.3
20260906151435 75 194 0.0 0.0 0.00 0.00 0.00 77 1015.2
20260906145920 75 196 0.0 0.0 0.00 0.00 0.00 79 1015.2
20260906144917 75 197 0.0 0.0 0.00 0.00 0.00 77 1015.1
20260906144416 75 199 0.0 0.0 0.00 0.00 0.00 78 1015.1
20260906143917 75 196 0.0 0.0 0.00 0.00 0.00 80 1015.0
20260906143411 74 191 0.0 0.0 0.00 0.00 0.00 80 1015.1
20260906142415 74 194 0.0 0.0 0.00 0.00 0.00 82 1015.1
20260906141912 74 190 0.0 0.0 0.00 0.00 0.00 81 1014.9
20260906141404 74 190 0.0 0.0 0.00 0.00 0.00 82 1014.9
20260906140405 73 197 0.0 0.0 0.00 0.00 0.00 83 1014.8
20260906135907 73 194 0.0 0.0 0.00 0.00 0.00 82 1014.7
20260906135404 73 192 0.0 0.0 0.00 0.00 0.00 86 1014.7
20260906134910 73 192 0.0 0.0 0.00 0.00 0.00 85 1014.8
20260906134407 72 192 0.0 0.0 0.00 0.00 0.00 86 1014.7
20260906133904 72 193 0.0 0.0 0.00 0.00 0.00 87 1014.8
20260906132903 72 193 0.0 0.0 0.00 0.00 0.00 87 1014.7
20260906132406 72 193 0.0 0.0 0.00 0.00 0.00 88 1014.7
20260906131855 72 196 0.0 0.0 0.00 0.00 0.00 88 1014.7
20260906130844 71 192 0.0 0.0 0.00 0.00 0.00 87 1014.7
20260906130339 71 191 0.0 0.0 0.00 0.00 0.00 88 1014.5
20260906125848 71 192 0.0 0.0 0.00 0.00 0.00 89 1014.6
20260906125339 71 192 0.0 0.0 0.00 0.00 0.00 90 1014.5
20260906124335 71 192 0.0 0.0 0.00 0.00 0.00 90 1014.4
20260906123832 71 192 0.0 0.0 0.00 0.00 0.00 91 1014.5
20260906123334 70 192 0.0 0.0 0.00 0.00 0.00 92 1014.5
20260906122832 70 192 0.0 0.0 0.00 0.00 0.00 92 1014.4
20260906122333 70 192 0.0 0.0 0.00 0.00 0.00 93 1014.3
20260906121330 69 192 0.0 0.0 0.00 0.00 0.00 96 1014.2
20260906120832 69 192 0.0 0.0 0.00 0.00 0.00 97 1014.3
20260906120332 68 192 0.0 0.0 0.00 0.00 0.00 98 1014.2
20260906115834 67 192 0.0 0.0 0.00 0.00 0.00 98 1014.2
20260906115334 67 192 0.0 0.0 0.00 0.00 0.00 98 1014.1
20260906114837 66 192 0.0 0.0 0.00 0.00 0.00 97 1014.1
20260906114340 66 192 0.0 0.0 0.00 0.00 0.00 97 1014.1
20260906113339 66 192 0.0 0.0 0.00 0.00 0.00 97 1013.9
20260906112829 65 192 0.0 0.0 0.00 0.00 0.00 98 1013.9
20260906111828 65 192 0.0 0.0 0.00 0.00 0.00 97 1013.7
20260906111326 65 192 0.0 0.0 0.00 0.00 0.00 97 1013.6
20260906110842 65 192 0.0 0.0 0.00 0.00 0.00 97 1013.4
20260906110322 65 192 0.0 0.0 0.00 0.00 0.00 97 1013.4
20260906104817 65 192 0.0 0.0 0.00 0.00 0.00 97 1013.2
20260906104318 65 192 0.0 0.0 0.00 0.00 0.00 97 1013.2
20260906103307 65 192 0.0 0.0 0.00 0.00 0.00 97 1013.0
20260906102808 65 192 0.0 0.0 0.00 0.00 0.00 97 1012.9
20260906101803 65 192 0.0 0.0 0.00 0.00 0.00 97 1012.7
20260906101306 65 192 0.0 0.0 0.00 0.00 0.00 96 1012.7
20260906100802 65 192 0.0 0.0 0.00 0.00 0.00 96 1012.6
20260906100303 65 192 0.0 0.0 0.00 0.00 0.00 97 1012.7
20260906095806 65 192 0.0 0.0 0.00 0.00 0.00 97 1012.6
20260906095306 65 192 0.0 0.0 0.00 0.00 0.00 97 1012.7
20260906094803 65 192 0.0 0.0 0.00 0.00 0.00 97 1012.5
20260906094305 65 192 0.0 0.0 0.00 0.00 0.00 97 1012.5
20260906093800 65 192 0.0 0.0 0.00 0.00 0.00 96 1012.5
20260906093300 65 192 0.0 0.0 0.00 0.00 0.00 96 1012.5
20260906092252 65 192 0.0 0.0 0.00 0.00 0.00 96 1012.4
20260906091746 65 192 0.0 0.0 0.00 0.00 0.00 96 1012.3
20260906090747 65 192 0.0 0.0 0.00 0.00 0.00 96 1012.2
20260906090246 66 192 0.0 0.0 0.00 0.00 0.00 96 1012.3
20260906085801 66 192 0.0 0.0 0.00 0.00 0.00 96 1012.2
20260906084747 66 192 0.0 0.0 0.00 0.00 0.00 96 1012.1
20260906084244 66 192 0.0 0.0 0.00 0.00 0.00 96 1012.0
20260906083744 66 192 0.0 0.0 0.00 0.00 0.00 96 1012.0
20260906082734 66 192 0.0 0.0 0.00 0.00 0.00 96 1012.0
20260906082234 66 192 0.0 0.0 0.00 0.00 0.00 96 1012.0
20260906081741 66 192 0.0 0.0 0.00 0.00 0.00 96 1011.9
20260906080737 66 192 0.0 0.0 0.00 0.00 0.00 96 1011.9
20260906080234 66 192 0.0 0.0 0.00 0.00 0.00 96 1011.9
20260906075735 66 192 0.0 0.0 0.00 0.00 0.00 96 1012.0
20260906074732 66 192 0.0 0.0 0.00 0.00 0.00 96 1011.9
20260906074233 66 192 0.0 0.0 0.00 0.00 0.00 96 1012.0
20260906073238 66 192 0.0 0.0 0.00 0.00 0.00 96 1011.9
20260906072234 66 192 0.0 0.0 0.00 0.00 0.00 96 1011.8
20260906070732 66 192 0.0 0.0 0.00 0.00 0.00 96 1011.9
20260906070232 66 192 0.0 0.0 0.00 0.00 0.00 96 1011.9
20260906065231 67 192 0.0 0.0 0.00 0.00 0.00 96 1011.8
20260906064732 66 192 0.0 0.0 0.00 0.00 0.00 96 1011.8
20260906064230 67 192 0.0 0.0 0.00 0.00 0.00 96 1011.8
20260906063734 67 192 0.0 0.0 0.00 0.00 0.00 96 1011.8
20260906063231 67 192 0.0 0.0 0.00 0.00 0.00 96 1011.8
20260906062730 67 192 0.0 0.0 0.00 0.00 0.00 96 1011.9
20260906062230 67 192 0.0 0.0 0.00 0.00 0.00 96 1011.9
20260906061734 67 192 0.0 0.0 0.00 0.00 0.00 96 1011.9
20260906061230 67 192 0.0 0.0 0.00 0.00 0.00 96 1012.0
20260906060730 67 192 0.0 0.0 0.00 0.00 0.00 96 1012.0
20260906060233 67 192 0.0 0.0 0.00 0.00 0.00 96 1012.1
20260906055232 67 192 0.0 0.0 0.00 0.00 0.00 95 1012.1
20260906054729 67 192 0.0 0.0 0.00 0.00 0.00 95 1012.2
20260906054237 67 192 0.0 0.0 0.00 0.00 0.00 95 1012.1
20260906053733 67 192 0.0 0.0 0.00 0.00 0.00 95 1012.2
20260906053234 67 192 0.0 0.0 0.00 0.00 0.00 95 1012.2
20260906052732 67 192 0.0 0.0 0.00 0.00 0.00 95 1012.2
20260906051231 68 192 0.0 0.0 0.00 0.00 0.00 94 1012.3
20260906050731 68 192 0.0 0.0 0.00 0.00 0.00 94 1012.3
20260906050232 68 192 0.0 0.0 0.00 0.00 0.00 94 1012.4
20260906045231 68 192 0.0 0.0 0.00 0.00 0.00 94 1012.3
20260906044731 68 192 0.0 0.0 0.00 0.00 0.00 94 1012.4
20260906043730 68 192 0.0 0.0 0.00 0.00 0.00 94 1012.4
20260906042733 68 192 0.0 0.0 0.00 0.00 0.00 93 1012.4
20260906042236 68 192 0.0 0.0 0.00 0.00 0.00 93 1012.5
20260906041732 68 192 0.0 0.0 0.00 0.00 0.00 93 1012.4
20260906040732 68 192 0.0 0.0 0.00 0.00 0.00 93 1012.5
20260906040233 69 192 0.0 0.0 0.00 0.00 0.00 92 1012.5
20260906035732 69 192 0.0 0.0 0.00 0.00 0.00 93 1012.5
20260906035229 69 192 0.0 0.0 0.00 0.00 0.00 93 1012.5
20260906034731 69 192 0.0 0.0 0.00 0.00 0.00 92 1012.6
20260906034232 69 192 0.0 0.0 0.00 0.00 0.00 92 1012.6
20260906033234 69 192 0.0 0.0 0.00 0.00 0.00 93 1012.6
20260906031720 69 192 0.0 0.0 0.00 0.00 0.00 92 1012.5
20260906030713 69 192 0.0 0.0 0.00 0.00 0.00 92 1012.5
20260906030201 69 192 0.0 0.0 0.00 0.00 0.00 92 1012.4
20260906025203 70 192 0.0 0.0 0.00 0.00 0.00 92 1012.4
20260906024708 70 192 0.0 0.0 0.00 0.00 0.00 92 1012.5
20260906024205 70 192 0.0 0.0 0.00 0.00 0.00 92 1012.5
20260906023718 70 192 0.0 0.0 0.00 0.00 0.00 91 1012.5
20260906022707 70 192 0.0 0.0 0.00 0.00 0.00 91 1012.5
20260906022202 70 192 0.0 0.0 0.00 0.00 0.00 91 1012.5
20260906021709 70 192 0.0 0.0 0.00 0.00 0.00 90 1012.5
20260906021203 70 192 0.0 0.0 0.00 0.00 0.00 90 1012.4
20260906020702 70 192 0.0 0.0 0.00 0.00 0.00 90 1012.5
20260906020202 70 192 0.0 0.0 0.00 0.00 0.00 90 1012.6
20260906015201 71 192 0.0 0.0 0.00 0.00 0.00 90 1012.3
20260906014702 71 192 0.0 0.0 0.00 0.00 0.00 90 1012.2
20260906014202 71 192 0.0 0.0 0.00 0.00 0.00 90 1012.2
20260906013701 71 192 0.0 0.0 0.00 0.00 0.00 90 1012.1
20260906013159 71 192 0.0 0.0 0.00 0.00 0.00 90 1012.0
20260906012659 71 192 0.0 0.0 0.00 0.00 0.00 90 1012.0
20260906012158 71 192 0.0 0.0 0.00 0.00 0.00 90 1011.9
20260906011658 71 192 0.0 0.0 0.00 0.00 0.00 89 1011.9
20260906010651 72 192 0.0 0.0 0.00 0.00 0.00 89 1011.9
20260906010159 72 192 0.0 0.0 0.00 0.00 0.00 88 1011.9
20260906004645 73 192 0.0 0.0 0.00 0.00 0.00 87 1011.9
20260906003644 73 192 0.0 0.0 0.00 0.00 0.00 86 1011.8
20260906003143 73 192 0.0 0.0 0.00 0.00 0.00 86 1011.7
20260906002644 73 192 0.0 0.0 0.00 0.00 0.00 86 1011.7
20260906002143 74 192 0.0 0.0 0.00 0.00 0.00 85 1011.6
20260906001135 74 192 0.0 0.0 0.00 0.00 0.00 83 1011.2
20260906000641 74 192 0.0 0.0 0.00 0.00 0.00 83 1011.1
20260906000137 74 192 0.0 0.0 0.00 0.00 0.00 82 1011.1
20260905235700 75 192 0.0 0.0 0.00 0.00 0.00 83 1011.0
20260905235139 75 192 0.0 0.0 0.00 0.00 0.00 82 1011.1
20260905234740 75 192 0.0 0.0 0.00 0.00 0.00 81 1011.0
20260905233638 76 192 0.0 0.0 0.00 0.00 0.00 81 1011.0
20260905233139 76 192 0.0 0.0 0.00 0.00 0.00 79 1011.1
20260905232632 76 192 0.0 0.0 0.00 0.00 0.00 78 1011.0
20260905231633 76 192 0.0 0.0 0.00 0.00 0.00 78 1011.1